{"data":{"norad_id":48693,"epoch":"2026-09-19T13:42:24.094944Z","epoch_age_seconds":121468,"freshness":"FRESH","line1":"1 48693U 21044BH  26262.57111221  .00000064  00000+0  13823-4 0  9999","line2":"2 48693  53.1599 252.9536 0001260  77.9973 282.1170 15.31698114294079","mean_motion":15.31698114,"eccentricity":0.000126,"inclination_deg":53.1599,"raan_deg":252.9536,"arg_perigee_deg":77.9973,"mean_anomaly_deg":282.117,"bstar":1.3823e-5,"rev_number":29407,"period_min":94.013303720762,"perigee_km":469.8826580895,"apogee_km":471.60857650906,"semimajor_km":6848.8826172993,"source":"CELESTRAK","updated_at":"2026-09-20T09:00:39.245515Z"}}